Time,TemperatureF,DewpointF,PressureIn,WindDirection,WindDirectionDegrees,WindSpeedMPH,WindSpeedGustMPH,Humidity,HourlyPrecipIn,Conditions,Clouds,dailyrainin,SoftwareType,DateUTC
2013-02-28 00:00:00,32.4,29.2,29.61,SW,217,3.0,3.0,88,0.00,,,0.23,Wunderground v.1.15,2013-02-28 05:00:00,
2013-02-28 00:05:00,32.4,29.0,29.60,SE,145,2.0,3.0,87,0.00,,,0.00,Wunderground v.1.15,2013-02-28 05:05:00,
2013-02-28 00:10:00,32.4,29.0,29.60,SSE,168,2.0,2.0,87,0.00,,,0.00,Wunderground v.1.15,2013-02-28 05:10:00,
2013-02-28 00:15:00,32.4,29.2,29.60,NE,38,2.0,2.0,88,0.00,,,0.00,Wunderground v.1.15,2013-02-28 05:15:00,
2013-02-28 00:25:00,32.4,29.2,29.60,WSW,239,1.0,2.0,88,0.00,,,0.00,Wunderground v.1.15,2013-02-28 05:25:00,
2013-02-28 00:30:00,32.2,29.3,29.60,SSE,151,1.0,1.0,89,0.00,,,0.00,Wunderground v.1.15,2013-02-28 05:30:00,
2013-02-28 00:35:00,32.2,29.3,29.60,SE,136,1.0,1.0,89,0.00,,,0.00,Wunderground v.1.15,2013-02-28 05:35:00,
2013-02-28 00:40:00,32.2,29.3,29.60,SSE,162,1.0,1.0,89,0.00,,,0.00,Wunderground v.1.15,2013-02-28 05:40:00,
2013-02-28 00:45:00,32.2,29.3,29.60,South,177,1.0,2.0,89,0.00,,,0.00,Wunderground v.1.15,2013-02-28 05:45:00,
2013-02-28 00:55:00,32.1,29.2,29.60,SSE,148,2.0,2.0,89,0.00,,,0.00,Wunderground v.1.15,2013-02-28 05:55:00,
2013-02-28 01:00:00,32.1,29.2,29.60,SSW,198,2.0,2.0,89,0.00,,,0.00,Wunderground v.1.15,2013-02-28 06:00:00,
2013-02-28 01:10:00,32.1,29.2,29.60,SSE,161,2.0,3.0,89,0.00,,,0.00,Wunderground v.1.15,2013-02-28 06:10:00,
2013-02-28 01:15:00,32.1,29.2,29.60,South,181,2.0,3.0,89,0.00,,,0.00,Wunderground v.1.15,2013-02-28 06:15:00,
2013-02-28 01:25:00,32.1,29.2,29.60,West,267,1.0,1.0,89,0.00,,,0.00,Wunderground v.1.15,2013-02-28 06:25:00,
2013-02-28 01:30:00,32.1,29.2,29.60,SSW,208,1.0,1.0,89,0.00,,,0.00,Wunderground v.1.15,2013-02-28 06:30:00,
2013-02-28 01:40:00,31.9,29.0,29.60,SW,227,1.0,1.0,89,0.00,,,0.00,Wunderground v.1.15,2013-02-28 06:40:00,
2013-02-28 01:45:00,31.8,28.9,29.60,SW,227,0.0,1.0,89,0.00,,,0.00,Wunderground v.1.15,2013-02-28 06:45:00,
2013-02-28 01:55:00,31.6,29.0,29.60,SSE,161,0.0,2.0,90,0.00,,,0.00,Wunderground v.1.15,2013-02-28 06:55:00,
2013-02-28 02:00:00,31.5,28.9,29.60,WSW,250,1.0,1.0,90,0.00,,,0.00,Wunderground v.1.15,2013-02-28 07:00:00,
2013-02-28 02:10:00,31.5,28.1,29.60,SSE,166,1.0,1.0,87,0.00,,,0.00,Wunderground v.1.15,2013-02-28 07:10:00,
2013-02-28 02:15:00,31.5,27.5,29.60,NW,323,1.0,1.0,85,0.00,,,0.00,Wunderground v.1.15,2013-02-28 07:15:00,
2013-02-28 02:25:00,31.5,27.2,29.60,NNW,348,1.0,5.0,84,0.00,,,0.00,Wunderground v.1.15,2013-02-28 07:25:00,
2013-02-28 02:30:00,31.5,26.9,29.60,SW,217,1.0,1.0,83,0.00,,,0.00,Wunderground v.1.15,2013-02-28 07:30:00,
2013-02-28 02:40:00,31.6,26.7,29.60,ENE,61,1.0,1.0,82,0.00,,,0.00,Wunderground v.1.15,2013-02-28 07:40:00,
2013-02-28 02:45:00,31.6,26.7,29.60,ESE,121,1.0,1.0,82,0.00,,,0.00,Wunderground v.1.15,2013-02-28 07:45:00,
2013-02-28 02:55:00,31.6,26.7,29.59,ESE,116,1.0,4.0,82,0.00,,,0.00,Wunderground v.1.15,2013-02-28 07:55:00,
2013-02-28 03:00:00,31.8,26.9,29.59,SSW,209,1.0,1.0,82,0.00,,,0.00,Wunderground v.1.15,2013-02-28 08:00:00,
2013-02-28 03:10:00,31.8,27.2,29.59,South,179,0.0,2.0,83,0.00,,,0.00,Wunderground v.1.15,2013-02-28 08:10:00,
2013-02-28 03:15:00,31.8,27.5,29.59,South,180,1.0,2.0,84,0.00,,,0.00,Wunderground v.1.15,2013-02-28 08:15:00,
2013-02-28 03:25:00,31.6,27.3,29.59,SW,235,2.0,4.0,84,0.00,,,0.00,Wunderground v.1.15,2013-02-28 08:25:00,
2013-02-28 03:30:00,31.6,27.3,29.59,SSW,211,2.0,2.0,84,0.00,,,0.00,Wunderground v.1.15,2013-02-28 08:30:00,
2013-02-28 03:40:00,31.5,27.2,29.59,NW,309,1.0,1.0,84,0.00,,,0.00,Wunderground v.1.15,2013-02-28 08:40:00,
2013-02-28 03:45:00,31.3,27.3,29.59,SSW,207,1.0,1.0,85,0.00,,,0.00,Wunderground v.1.15,2013-02-28 08:45:00,
2013-02-28 03:55:00,31.2,27.5,29.59,SE,138,1.0,1.0,86,0.00,,,0.00,Wunderground v.1.15,2013-02-28 08:55:00,
2013-02-28 04:00:00,31.0,27.6,29.59,SW,218,1.0,1.0,87,0.00,,,0.00,Wunderground v.1.15,2013-02-28 09:00:00,
2013-02-28 04:10:00,31.0,27.6,29.59,SE,138,1.0,6.0,87,0.00,,,0.00,Wunderground v.1.15,2013-02-28 09:10:00,
2013-02-28 04:15:00,31.0,27.6,29.59,SSE,161,1.0,6.0,87,0.00,,,0.00,Wunderground v.1.15,2013-02-28 09:15:00,
2013-02-28 04:25:00,30.9,27.8,29.59,West,263,1.0,2.0,88,0.00,,,0.00,Wunderground v.1.15,2013-02-28 09:25:00,
2013-02-28 04:30:00,30.9,27.8,29.59,SSW,210,1.0,3.0,88,0.00,,,0.00,Wunderground v.1.15,2013-02-28 09:30:00,
2013-02-28 04:40:00,30.9,27.8,29.59,NW,315,2.0,2.0,88,0.00,,,0.00,Wunderground v.1.15,2013-02-28 09:40:00,
2013-02-28 04:45:00,30.9,27.8,29.59,SSE,160,2.0,4.0,88,0.00,,,0.00,Wunderground v.1.15,2013-02-28 09:45:00,
2013-02-28 04:55:00,30.9,27.8,29.59,SW,214,1.0,2.0,88,0.00,,,0.00,Wunderground v.1.15,2013-02-28 09:55:00,
2013-02-28 05:00:00,30.7,27.6,29.59,SW,216,1.0,1.0,88,0.00,,,0.00,Wunderground v.1.15,2013-02-28 10:00:00,
2013-02-28 05:10:00,30.7,27.6,29.59,West,275,1.0,1.0,88,0.00,,,0.00,Wunderground v.1.15,2013-02-28 10:10:00,
2013-02-28 05:15:00,30.7,27.6,29.59,SSW,207,1.0,1.0,88,0.00,,,0.00,Wunderground v.1.15,2013-02-28 10:15:00,
2013-02-28 05:25:00,30.7,27.8,29.60,SSW,207,1.0,1.0,89,0.00,,,0.00,Wunderground v.1.15,2013-02-28 10:25:00,
2013-02-28 05:30:00,30.7,27.6,29.60,SSW,212,1.0,1.0,88,0.00,,,0.00,Wunderground v.1.15,2013-02-28 10:30:00,
2013-02-28 05:40:00,30.7,27.8,29.60,SW,226,1.0,3.0,89,0.00,,,0.00,Wunderground v.1.15,2013-02-28 10:40:00,
2013-02-28 05:45:00,30.7,27.8,29.60,West,273,1.0,3.0,89,0.00,,,0.00,Wunderground v.1.15,2013-02-28 10:45:00,
2013-02-28 05:55:00,30.9,28.0,29.60,WSW,244,1.0,2.0,89,0.00,,,0.00,Wunderground v.1.15,2013-02-28 10:55:00,
2013-02-28 06:00:00,30.9,27.8,29.60,SW,236,2.0,4.0,88,0.00,,,0.00,Wunderground v.1.15,2013-02-28 11:00:00,
2013-02-28 06:05:00,30.9,27.8,29.60,WSW,238,3.0,4.0,88,0.00,,,0.00,Wunderground v.1.15,2013-02-28 11:05:00,
2013-02-28 06:15:00,31.0,27.9,29.60,SW,236,1.0,2.0,88,0.00,,,0.00,Wunderground v.1.15,2013-02-28 11:15:00,
2013-02-28 06:25:00,31.0,27.9,29.60,WSW,251,2.0,2.0,88,0.00,,,0.00,Wunderground v.1.15,2013-02-28 11:25:00,
2013-02-28 06:30:00,31.0,27.9,29.60,SSW,212,2.0,2.0,88,0.00,,,0.00,Wunderground v.1.15,2013-02-28 11:30:00,
2013-02-28 06:40:00,31.0,27.9,29.60,SW,222,2.0,6.0,88,0.00,,,0.00,Wunderground v.1.15,2013-02-28 11:40:00,
2013-02-28 06:45:00,31.0,27.9,29.60,SE,126,1.0,6.0,88,0.00,,,0.00,Wunderground v.1.15,2013-02-28 11:45:00,
2013-02-28 06:55:00,31.0,27.9,29.60,WSW,244,2.0,2.0,88,0.00,,,0.00,Wunderground v.1.15,2013-02-28 11:55:00,
2013-02-28 07:00:00,30.9,27.8,29.60,SW,220,1.0,1.0,88,0.00,,,0.00,Wunderground v.1.15,2013-02-28 12:00:00,
2013-02-28 07:10:00,30.9,27.8,29.60,SW,234,2.0,2.0,88,0.00,,,0.00,Wunderground v.1.15,2013-02-28 12:10:00,
2013-02-28 07:15:00,30.9,27.8,29.60,SSE,147,2.0,2.0,88,0.00,,,0.00,Wunderground v.1.15,2013-02-28 12:15:00,
2013-02-28 07:25:00,30.9,27.8,29.60,WNW,286,2.0,2.0,88,0.00,,,0.00,Wunderground v.1.15,2013-02-28 12:25:00,
2013-02-28 07:30:00,30.9,27.8,29.60,WSW,249,2.0,2.0,88,0.00,,,0.00,Wunderground v.1.15,2013-02-28 12:30:00,
2013-02-28 07:40:00,30.9,27.8,29.60,SSW,196,2.0,2.0,88,0.00,,,0.00,Wunderground v.1.15,2013-02-28 12:40:00,
2013-02-28 07:45:00,30.9,27.8,29.60,South,170,2.0,2.0,88,0.00,,,0.00,Wunderground v.1.15,2013-02-28 12:45:00,
2013-02-28 07:55:00,30.9,28.0,29.60,South,187,2.0,3.0,89,0.00,,,0.00,Wunderground v.1.15,2013-02-28 12:55:00,
2013-02-28 08:00:00,30.9,28.0,29.60,SW,223,2.0,2.0,89,0.00,,,0.00,Wunderground v.1.15,2013-02-28 13:00:00,
2013-02-28 08:10:00,30.9,28.0,29.61,WNW,302,1.0,1.0,89,0.00,,,0.00,Wunderground v.1.15,2013-02-28 13:10:00,
2013-02-28 08:15:00,31.0,28.1,29.61,South,181,1.0,2.0,89,0.00,,,0.00,Wunderground v.1.15,2013-02-28 13:15:00,
2013-02-28 08:25:00,31.0,28.1,29.61,SW,234,1.0,1.0,89,0.00,,,0.00,Wunderground v.1.15,2013-02-28 13:25:00,
2013-02-28 08:30:00,31.0,28.1,29.61,WSW,244,1.0,1.0,89,0.00,,,0.00,Wunderground v.1.15,2013-02-28 13:30:00,
2013-02-28 08:40:00,31.2,28.3,29.62,SE,134,1.0,1.0,89,0.00,,,0.00,Wunderground v.1.15,2013-02-28 13:40:00,
2013-02-28 08:45:00,31.2,28.3,29.62,WSW,257,2.0,2.0,89,0.00,,,0.00,Wunderground v.1.15,2013-02-28 13:45:00,
2013-02-28 08:55:00,31.3,28.4,29.62,SSW,207,1.0,2.0,89,0.00,,,0.00,Wunderground v.1.15,2013-02-28 13:55:00,
2013-02-28 09:00:00,31.3,28.4,29.62,WSW,256,1.0,2.0,89,0.00,,,0.00,Wunderground v.1.15,2013-02-28 14:00:00,
2013-02-28 09:10:00,31.3,28.4,29.62,West,260,2.0,2.0,89,0.00,,,0.00,Wunderground v.1.15,2013-02-28 14:10:00,
2013-02-28 09:15:00,31.3,28.4,29.62,West,269,1.0,4.0,89,0.00,,,0.00,Wunderground v.1.15,2013-02-28 14:15:00,
2013-02-28 09:25:00,31.5,28.6,29.62,WSW,247,1.0,1.0,89,0.00,,,0.00,Wunderground v.1.15,2013-02-28 14:25:00,
2013-02-28 09:30:00,31.5,28.6,29.62,WSW,252,1.0,2.0,89,0.00,,,0.00,Wunderground v.1.15,2013-02-28 14:30:00,
2013-02-28 09:40:00,31.6,28.7,29.62,WSW,239,2.0,2.0,89,0.00,,,0.00,Wunderground v.1.15,2013-02-28 14:40:00,
2013-02-28 09:45:00,31.6,28.7,29.62,West,275,2.0,3.0,89,0.00,,,0.00,Wunderground v.1.15,2013-02-28 14:45:00,
2013-02-28 09:55:00,31.6,28.7,29.63,SSW,194,2.0,4.0,89,0.00,,,0.00,Wunderground v.1.15,2013-02-28 14:55:00,
2013-02-28 10:00:00,31.8,28.9,29.63,WNW,282,2.0,2.0,89,0.00,,,0.00,Wunderground v.1.15,2013-02-28 15:00:00,
2013-02-28 10:10:00,31.8,28.9,29.63,WSW,244,1.0,1.0,89,0.00,,,0.00,Wunderground v.1.15,2013-02-28 15:10:00,
2013-02-28 10:15:00,31.8,29.2,29.63,WSW,255,1.0,3.0,90,0.00,,,0.00,Wunderground v.1.15,2013-02-28 15:15:00,
2013-02-28 10:25:00,31.9,29.3,29.63,SSW,211,1.0,1.0,90,0.00,,,0.00,Wunderground v.1.15,2013-02-28 15:25:00,
2013-02-28 10:30:00,31.9,29.3,29.63,SW,217,1.0,1.0,90,0.00,,,0.00,Wunderground v.1.15,2013-02-28 15:30:00,
2013-02-28 10:40:00,32.2,29.6,29.64,WSW,253,1.0,1.0,90,0.00,,,0.00,Wunderground v.1.15,2013-02-28 15:40:00,
2013-02-28 10:45:00,32.4,29.8,29.64,West,260,1.0,1.0,90,0.00,,,0.00,Wunderground v.1.15,2013-02-28 15:45:00,
2013-02-28 10:55:00,32.7,30.1,29.64,West,269,1.0,2.0,90,0.00,,,0.00,Wunderground v.1.15,2013-02-28 15:55:00,
2013-02-28 11:00:00,32.8,30.2,29.64,SW,222,1.0,2.0,90,0.00,,,0.00,Wunderground v.1.15,2013-02-28 16:00:00,
2013-02-28 11:10:00,33.1,30.5,29.64,West,273,1.0,1.0,90,0.00,,,0.00,Wunderground v.1.15,2013-02-28 16:10:00,
2013-02-28 11:15:00,33.2,30.6,29.64,WSW,254,1.0,1.0,90,0.00,,,0.00,Wunderground v.1.15,2013-02-28 16:15:00,
2013-02-28 11:25:00,33.5,30.9,29.64,West,262,1.0,3.0,90,0.00,,,0.00,Wunderground v.1.15,2013-02-28 16:25:00,
2013-02-28 11:30:00,33.8,31.2,29.64,WSW,250,2.0,2.0,90,0.00,,,0.01,Wunderground v.1.15,2013-02-28 16:30:00,
2013-02-28 11:40:00,34.3,31.4,29.64,North,350,2.0,2.0,89,0.00,,,0.01,Wunderground v.1.15,2013-02-28 16:40:00,
2013-02-28 11:45:00,34.4,31.5,29.64,West,259,2.0,2.0,89,0.05,,,0.02,Wunderground v.1.15,2013-02-28 16:45:00,
2013-02-28 11:55:00,34.9,32.0,29.65,West,260,1.0,2.0,89,0.05,,,0.02,Wunderground v.1.15,2013-02-28 16:55:00,
2013-02-28 12:00:00,34.9,31.7,29.65,West,261,1.0,2.0,88,0.04,,,0.03,Wunderground v.1.15,2013-02-28 17:00:00,
2013-02-28 12:10:00,34.7,31.5,29.65,West,262,2.0,4.0,88,0.04,,,0.03,Wunderground v.1.15,2013-02-28 17:10:00,
2013-02-28 12:15:00,34.9,31.7,29.65,SE,141,2.0,4.0,88,0.04,,,0.04,Wunderground v.1.15,2013-02-28 17:15:00,
2013-02-28 12:25:00,35.3,32.4,29.66,West,261,1.0,2.0,89,0.04,,,0.04,Wunderground v.1.15,2013-02-28 17:25:00,
2013-02-28 12:30:00,35.3,32.4,29.66,WNW,289,2.0,2.0,89,0.04,,,0.04,Wunderground v.1.15,2013-02-28 17:30:00,
2013-02-28 12:40:00,35.3,32.4,29.66,WSW,243,1.0,1.0,89,0.00,,,0.04,Wunderground v.1.15,2013-02-28 17:40:00,
2013-02-28 12:45:00,35.5,32.6,29.66,WSW,241,0.0,2.0,89,0.00,,,0.05,Wunderground v.1.15,2013-02-28 17:45:00,
2013-02-28 12:55:00,35.5,32.6,29.66,WNW,288,1.0,2.0,89,0.00,,,0.05,Wunderground v.1.15,2013-02-28 17:55:00,
2013-02-28 13:00:00,35.3,32.1,29.66,ENE,70,1.0,1.0,88,0.00,,,0.05,Wunderground v.1.15,2013-02-28 18:00:00,
2013-02-28 13:10:00,35.2,32.0,29.66,West,280,1.0,2.0,88,0.00,,,0.05,Wunderground v.1.15,2013-02-28 18:10:00,
2013-02-28 13:15:00,35.2,32.0,29.66,West,274,1.0,3.0,88,0.00,,,0.05,Wunderground v.1.15,2013-02-28 18:15:00,
2013-02-28 13:25:00,35.2,31.7,29.67,West,275,1.0,1.0,87,0.00,,,0.05,Wunderground v.1.15,2013-02-28 18:25:00,
2013-02-28 13:30:00,35.2,31.7,29.67,SW,230,1.0,1.0,87,0.00,,,0.05,Wunderground v.1.15,2013-02-28 18:30:00,
2013-02-28 13:40:00,35.2,31.4,29.67,SW,229,1.0,1.0,86,0.00,,,0.05,Wunderground v.1.15,2013-02-28 18:40:00,
2013-02-28 13:45:00,35.2,31.4,29.67,SE,136,1.0,1.0,86,0.00,,,0.06,Wunderground v.1.15,2013-02-28 18:45:00,
2013-02-28 13:55:00,35.3,31.5,29.67,West,281,1.0,1.0,86,0.00,,,0.06,Wunderground v.1.15,2013-02-28 18:55:00,
2013-02-28 14:00:00,35.2,31.4,29.67,SW,229,0.0,2.0,86,0.00,,,0.06,Wunderground v.1.15,2013-02-28 19:00:00,
2013-02-28 14:10:00,35.0,31.2,29.67,ENE,63,1.0,2.0,86,0.00,,,0.06,Wunderground v.1.15,2013-02-28 19:10:00,
2013-02-28 14:15:00,34.9,31.1,29.67,WSW,242,2.0,2.0,86,0.00,,,0.06,Wunderground v.1.15,2013-02-28 19:15:00,
2013-02-28 14:25:00,34.7,30.9,29.69,West,277,1.0,2.0,86,0.00,,,0.06,Wunderground v.1.15,2013-02-28 19:25:00,
2013-02-28 14:30:00,34.7,30.9,29.69,West,281,1.0,1.0,86,0.00,,,0.06,Wunderground v.1.15,2013-02-28 19:30:00,
2013-02-28 14:40:00,34.7,31.2,29.69,WNW,295,1.0,1.0,87,0.00,,,0.06,Wunderground v.1.15,2013-02-28 19:40:00,
2013-02-28 14:45:00,34.7,31.2,29.69,NNE,15,0.0,1.0,87,0.00,,,0.06,Wunderground v.1.15,2013-02-28 19:45:00,
2013-02-28 14:55:00,34.6,31.1,29.69,NNW,329,0.0,0.0,87,0.00,,,0.06,Wunderground v.1.15,2013-02-28 19:55:00,
2013-02-28 15:00:00,34.6,31.1,29.69,NE,54,1.0,1.0,87,0.00,,,0.06,Wunderground v.1.15,2013-02-28 20:00:00,
2013-02-28 15:10:00,34.6,31.1,29.70,SW,229,0.0,3.0,87,0.00,,,0.06,Wunderground v.1.15,2013-02-28 20:10:00,
2013-02-28 15:15:00,34.6,31.1,29.70,West,270,1.0,3.0,87,0.00,,,0.06,Wunderground v.1.15,2013-02-28 20:15:00,
2013-02-28 15:25:00,35.0,31.5,29.70,WSW,255,1.0,1.0,87,0.00,,,0.06,Wunderground v.1.15,2013-02-28 20:25:00,
2013-02-28 15:30:00,35.2,31.7,29.70,West,280,1.0,1.0,87,0.00,,,0.06,Wunderground v.1.15,2013-02-28 20:30:00,
2013-02-28 15:40:00,35.3,31.8,29.71,West,259,0.0,3.0,87,0.00,,,0.06,Wunderground v.1.15,2013-02-28 20:40:00,
2013-02-28 15:45:00,35.2,31.7,29.71,SW,222,1.0,3.0,87,0.00,,,0.06,Wunderground v.1.15,2013-02-28 20:45:00,
2013-02-28 15:55:00,35.0,31.8,29.71,SW,224,1.0,1.0,88,0.00,,,0.06,Wunderground v.1.15,2013-02-28 20:55:00,
2013-02-28 16:00:00,34.9,31.7,29.71,West,267,1.0,1.0,88,0.00,,,0.06,Wunderground v.1.15,2013-02-28 21:00:00,
2013-02-28 16:10:00,34.4,31.5,29.72,West,267,0.0,0.0,89,0.00,,,0.06,Wunderground v.1.15,2013-02-28 21:10:00,
2013-02-28 16:15:00,34.1,31.2,29.72,West,267,0.0,0.0,89,0.00,,,0.06,Wunderground v.1.15,2013-02-28 21:15:00,
2013-02-28 16:25:00,34.1,31.5,29.72,West,267,0.0,0.0,90,0.00,,,0.07,Wunderground v.1.15,2013-02-28 21:25:00,
2013-02-28 16:30:00,34.0,31.4,29.72,West,267,0.0,1.0,90,0.00,,,0.07,Wunderground v.1.15,2013-02-28 21:30:00,
2013-02-28 16:40:00,33.5,31.2,29.73,North,5,0.0,0.0,91,0.00,,,0.07,Wunderground v.1.15,2013-02-28 21:40:00,
2013-02-28 16:45:00,33.4,31.1,29.73,North,5,0.0,0.0,91,0.00,,,0.07,Wunderground v.1.15,2013-02-28 21:45:00,
2013-02-28 16:55:00,33.5,31.4,29.74,West,259,0.0,1.0,92,0.00,,,0.07,Wunderground v.1.15,2013-02-28 21:55:00,
2013-02-28 17:00:00,33.7,31.6,29.74,West,259,0.0,0.0,92,0.00,,,0.07,Wunderground v.1.15,2013-02-28 22:00:00,
2013-02-28 17:10:00,33.8,31.7,29.74,West,259,0.0,1.0,92,0.00,,,0.08,Wunderground v.1.15,2013-02-28 22:10:00,
2013-02-28 17:15:00,33.8,31.7,29.74,SSW,213,0.0,1.0,92,0.00,,,0.08,Wunderground v.1.15,2013-02-28 22:15:00,
2013-02-28 17:25:00,33.8,31.7,29.75,SSW,213,0.0,0.0,92,0.00,,,0.08,Wunderground v.1.15,2013-02-28 22:25:00,
2013-02-28 17:30:00,33.8,31.7,29.75,SSW,213,0.0,1.0,92,0.00,,,0.08,Wunderground v.1.15,2013-02-28 22:30:00,
2013-02-28 17:40:00,33.8,31.7,29.76,SW,220,0.0,0.0,92,0.00,,,0.08,Wunderground v.1.15,2013-02-28 22:40:00,
2013-02-28 17:45:00,33.8,31.7,29.76,SW,220,0.0,0.0,92,0.00,,,0.08,Wunderground v.1.15,2013-02-28 22:45:00,
2013-02-28 17:55:00,33.8,32.0,29.77,SW,220,0.0,0.0,93,0.00,,,0.08,Wunderground v.1.15,2013-02-28 22:55:00,
2013-02-28 18:00:00,33.8,32.0,29.77,SW,220,0.0,0.0,93,0.00,,,0.08,Wunderground v.1.15,2013-02-28 23:00:00,
2013-02-28 18:10:00,33.8,32.0,29.78,SW,220,0.0,0.0,93,0.00,,,0.09,Wunderground v.1.15,2013-02-28 23:10:00,
2013-02-28 18:15:00,34.0,32.2,29.78,SW,220,0.0,0.0,93,0.00,,,0.09,Wunderground v.1.15,2013-02-28 23:15:00,
2013-02-28 18:25:00,33.8,32.0,29.78,SW,220,0.0,0.0,93,0.00,,,0.09,Wunderground v.1.15,2013-02-28 23:25:00,
2013-02-28 18:30:00,34.0,32.2,29.78,SW,220,0.0,0.0,93,0.00,,,0.09,Wunderground v.1.15,2013-02-28 23:30:00,
2013-02-28 18:40:00,34.0,32.2,29.79,WSW,251,0.0,2.0,93,0.00,,,0.09,Wunderground v.1.15,2013-02-28 23:40:00,
2013-02-28 18:45:00,33.7,31.9,29.79,WSW,253,1.0,2.0,93,0.00,,,0.09,Wunderground v.1.15,2013-02-28 23:45:00,
2013-02-28 18:55:00,33.2,31.4,29.80,WNW,290,0.0,1.0,93,0.00,,,0.09,Wunderground v.1.15,2013-02-28 23:55:00,
2013-02-28 19:00:00,33.2,31.4,29.80,WNW,284,0.0,0.0,93,0.00,,,0.09,Wunderground v.1.15,2013-03-01 00:00:00,
2013-02-28 19:10:00,33.1,31.3,29.81,NNE,13,0.0,0.0,93,0.00,,,0.09,Wunderground v.1.15,2013-03-01 00:10:00,
2013-02-28 19:15:00,32.9,31.1,29.81,NNE,13,0.0,0.0,93,0.00,,,0.09,Wunderground v.1.15,2013-03-01 00:15:00,
2013-02-28 19:25:00,32.7,30.9,29.82,NNE,13,0.0,0.0,93,0.00,,,0.09,Wunderground v.1.15,2013-03-01 00:25:00,
2013-02-28 19:30:00,32.7,30.9,29.82,NNE,13,0.0,0.0,93,0.00,,,0.09,Wunderground v.1.15,2013-03-01 00:30:00,
2013-02-28 19:40:00,32.5,30.7,29.83,SSW,213,0.0,0.0,93,0.00,,,0.09,Wunderground v.1.15,2013-03-01 00:40:00,
2013-02-28 19:45:00,32.4,30.6,29.83,SSW,213,0.0,0.0,93,0.00,,,0.09,Wunderground v.1.15,2013-03-01 00:45:00,
2013-02-28 19:55:00,32.4,30.9,29.83,SSW,213,0.0,0.0,94,0.00,,,0.09,Wunderground v.1.15,2013-03-01 00:55:00,
2013-02-28 20:00:00,32.4,30.9,29.83,SSW,213,0.0,0.0,94,0.00,,,0.09,Wunderground v.1.15,2013-03-01 01:00:00,
2013-02-28 20:05:00,32.4,30.9,29.83,South,171,0.0,0.0,94,0.00,,,0.09,Wunderground v.1.15,2013-03-01 01:05:00,
2013-02-28 20:15:00,32.5,31.0,29.83,North,11,0.0,0.0,94,0.00,,,0.09,Wunderground v.1.15,2013-03-01 01:15:00,
2013-02-28 20:25:00,32.5,31.0,29.83,WSW,246,0.0,0.0,94,0.00,,,0.09,Wunderground v.1.15,2013-03-01 01:25:00,
2013-02-28 20:30:00,32.5,31.0,29.83,WSW,246,0.0,0.0,94,0.00,,,0.09,Wunderground v.1.15,2013-03-01 01:30:00,
2013-02-28 20:40:00,32.4,30.9,29.83,SSW,209,0.0,1.0,94,0.00,,,0.09,Wunderground v.1.15,2013-03-01 01:40:00,
2013-02-28 20:45:00,32.4,30.9,29.83,West,274,0.0,1.0,94,0.00,,,0.09,Wunderground v.1.15,2013-03-01 01:45:00,
2013-02-28 20:55:00,32.4,30.9,29.83,North,5,1.0,1.0,94,0.00,,,0.09,Wunderground v.1.15,2013-03-01 01:55:00,
2013-02-28 21:00:00,32.4,30.9,29.83,ENE,59,0.0,0.0,94,0.00,,,0.09,Wunderground v.1.15,2013-03-01 02:00:00,
2013-02-28 21:05:00,32.4,30.9,29.84,NE,53,0.0,0.0,94,0.00,,,0.09,Wunderground v.1.15,2013-03-01 02:05:00,
2013-02-28 21:15:00,32.2,30.7,29.84,North,11,0.0,2.0,94,0.00,,,0.09,Wunderground v.1.15,2013-03-01 02:15:00,
2013-02-28 21:25:00,32.2,30.7,29.84,WNW,292,0.0,1.0,94,0.00,,,0.09,Wunderground v.1.15,2013-03-01 02:25:00,
2013-02-28 21:30:00,32.2,30.7,29.84,NE,36,1.0,1.0,94,0.00,,,0.09,Wunderground v.1.15,2013-03-01 02:30:00,
2013-02-28 21:40:00,32.2,30.7,29.85,NE,51,0.0,1.0,94,0.00,,,0.09,Wunderground v.1.15,2013-03-01 02:40:00,
2013-02-28 21:45:00,32.2,30.7,29.85,North,5,0.0,1.0,94,0.00,,,0.09,Wunderground v.1.15,2013-03-01 02:45:00,
2013-02-28 21:55:00,32.1,30.6,29.85,NE,38,1.0,1.0,94,0.00,,,0.09,Wunderground v.1.15,2013-03-01 02:55:00,
2013-02-28 22:00:00,32.1,30.6,29.85,NNE,17,1.0,1.0,94,0.00,,,0.09,Wunderground v.1.15,2013-03-01 03:00:00,
2013-02-28 22:10:00,31.9,30.4,29.85,NNW,344,1.0,1.0,94,0.00,,,0.09,Wunderground v.1.15,2013-03-01 03:10:00,
2013-02-28 22:15:00,31.9,30.4,29.85,North,360,1.0,1.0,94,0.00,,,0.09,Wunderground v.1.15,2013-03-01 03:15:00,
2013-02-28 22:25:00,31.8,30.3,29.85,ENE,59,0.0,0.0,94,0.00,,,0.09,Wunderground v.1.15,2013-03-01 03:25:00,
2013-02-28 22:30:00,31.8,30.3,29.85,ENE,59,0.0,0.0,94,0.00,,,0.09,Wunderground v.1.15,2013-03-01 03:30:00,
2013-02-28 22:40:00,31.8,30.3,29.85,ENE,59,0.0,0.0,94,0.00,,,0.09,Wunderground v.1.15,2013-03-01 03:40:00,
2013-02-28 22:45:00,31.8,30.3,29.85,ENE,61,0.0,0.0,94,0.00,,,0.09,Wunderground v.1.15,2013-03-01 03:45:00,
2013-02-28 22:55:00,31.8,30.3,29.85,NE,55,0.0,0.0,94,0.00,,,0.09,Wunderground v.1.15,2013-03-01 03:55:00,
2013-02-28 23:00:00,31.8,30.3,29.85,North,355,0.0,0.0,94,0.00,,,0.09,Wunderground v.1.15,2013-03-01 04:00:00,
2013-02-28 23:10:00,31.8,30.3,29.85,NNE,18,0.0,0.0,94,0.00,,,0.09,Wunderground v.1.15,2013-03-01 04:10:00,
2013-02-28 23:15:00,31.8,30.3,29.85,NNE,18,0.0,0.0,94,0.00,,,0.09,Wunderground v.1.15,2013-03-01 04:15:00,
2013-02-28 23:25:00,31.6,30.1,29.85,NNE,18,0.0,0.0,94,0.00,,,0.09,Wunderground v.1.15,2013-03-01 04:25:00,
2013-02-28 23:30:00,31.6,30.1,29.85,NNE,18,0.0,0.0,94,0.00,,,0.09,Wunderground v.1.15,2013-03-01 04:30:00,
2013-02-28 23:40:00,31.5,30.0,29.85,NNE,18,0.0,0.0,94,0.00,,,0.09,Wunderground v.1.15,2013-03-01 04:40:00,
2013-02-28 23:45:00,31.5,30.0,29.85,NNE,18,0.0,0.0,94,0.00,,,0.09,Wunderground v.1.15,2013-03-01 04:45:00,
2013-02-28 23:55:00,31.5,30.0,29.85,NNE,18,0.0,0.0,94,0.00,,,0.09,Wunderground v.1.15,2013-03-01 04:55:00,